Location: ??
(34.9170°N, 135.5016°E)
Time: 02:00:18
(UTC+00:00)

ATLAS 3B R/B - Pass Details

Date: 29 October 2020
Orbit: 1014 x 1181 km, 63.8° (Epoch: 23 November)

Event Time Altitude Azimuth Distance (km) Brightness Sun altitude
Exits shadow 18:06:54 38° 72° (ENE) 1,493 3.7 -39.4°
Drops below altitude 10° 18:11:20 10° 42° (NE) 2,812 5.4 -38.5°
Sets 18:14:03 0° 37° (NE) 3,780 6.1 -37.9°
